{"data":{"norad_id":41861,"epoch":"2026-09-15T07:12:15.355008Z","epoch_age_seconds":463814,"freshness":"STALE","line1":"1 41861U 16069C   26258.30017772  .00000003  00000+0  00000+0 0  9993","line2":"2 41861  55.5571  98.5941 0002003 331.4312  28.6313  1.70474479 61056","mean_motion":1.70474479,"eccentricity":0.0002003,"inclination_deg":55.5571,"raan_deg":98.5941,"arg_perigee_deg":331.4312,"mean_anomaly_deg":28.6313,"bstar":0,"rev_number":6105,"period_min":844.7012177113,"perigee_km":23216.198677124,"apogee_km":23228.056543127,"semimajor_km":29600.264610126,"source":"CELESTRAK","updated_at":"2026-09-20T09:00:46.495514Z"}}